User: anonymous
Location: Unspecified
(0.0000°N, 0.0000°E)
Time: 17:53:07
(UTC+02:00)
Language:

H-2A R/B - Orbit

View from above orbital plane
View from above orbital plane
View from above satellite
View from above satellite

Ground track
Ground track

The orbit data is extracted from the following two-line orbital elements,

1 28932U 06002B   14109.52216447  .00005075  00000-0  51710-3 0  6663
2 28932 098.3113 327.1505 0097815 123.3212 297.2331 14.87646893445868
Epoch (UTC): 19 April 2014 12:31:55
Eccentricity: 0.0097815
inclination: 98.3113°
perigee height: 537 km
apogee height: 673 km
right ascension of ascending node: 327.1505°
argument of perigee: 123.3212°
revolutions per day: 14.87646893
mean anomaly at epoch: 297.2331°
orbit number at epoch: 44586

The dashed part of the orbit path shows where the satellite is in the earth's shadow,  

DLR